0 HST 1 20580U 90037B 25307.98744179 .00007510 00000-0 26478-3 0 9993 2 20580 28.4664 176.1122 0001844 152.3920 207.6773 15.27300295754064 0 ISS (ZARYA) 1 25544U 98067A 25308.16441419 .00010829 00000-0 19922-3 0 9994 2 25544 51.6336 333.4485 0005036 15.3367 344.7773 15.49739341536875 0 CXO 1 25867U 99040B 25309.59259291 .00000745 00000-0 00000-0 0 9997 2 25867 52.3453 123.8670 8207779 310.6717 0.0538 0.37811702 16477